Regional Weather Roundup
Issued by NWS Cleveland, OH

Home | Current Version | Previous Version | Graphics & Text | Print | Product List | Glossary On
Versions: 1 2 3 4 5 6 7 8 9 10 11 12 13 14 15 16 17 18 19 20 21 22 23 24 25 26 27 28 29 30 31 32 33 34 35 36 37 38 39 40 41 42 43 44 45 46 47 48 49 50
000
ASUS41 KCLE 281810
RWRCLE
OHIO REGIONAL WEATHER ROUNDUP
NATIONAL WEATHER SERVICE CLEVELAND, OH
200 PM EDT WED JUN 28 2017

NOTE: "FAIR" INDICATES FEW OR NO CLOUDS BELOW 12,000 FEET WITH NO
SIGNIFICANT WEATHER AND/OR OBSTRUCTIONS TO VISIBILITY.

OHZ001>008-015>018-024>027-034-035-043-044-281900-
   NORTHWEST OHIO

CITY           SKY/WX    TMP DP  RH WIND       PRES   REMARKS
DEFIANCE       PTSUNNY   74  51  44 S15       30.09F
FINDLAY        CLOUDY    76  48  37 SW15G24   30.11F
TOLEDO EXPRESS CLOUDY    74  49  41 S12       30.09F
TOLEDO EXEC    CLOUDY    76  48  37 SW18G26   30.10F
LIMA           MOSUNNY   74  50  42 SW14      30.12F
$$

OHZ009>014-019>023-028>033-038-089-281900-
   NORTHEAST OHIO

CITY           SKY/WX    TMP DP  RH WIND       PRES   REMARKS
CLE-HOPKINS    CLOUDY    76  48  37 S10G20    30.15R
CLE-LAKEFRONT  MOSUNNY   73  53  49 NW7       30.12S
CUY CO. ARPT   MOSUNNY   75  52  43 NW6       30.14F
LORAIN-ELYRIA  MOSUNNY   75  44  33 W12G18    30.13F
ASHTABULA      SUNNY     73  46  38 VRB6      30.14F
AKRON-CANTON   CLOUDY    75  47  36 SW10      30.16S
WOOSTER        MOSUNNY   74  48  39 SW12G21   30.15F
MANSFIELD      CLOUDY    75  50  41 S10       30.15S
YOUNGSTOWN     CLOUDY    74  49  41 SW13G18   30.14F
$$

OHZ042-051>053-060>062-070>072-077>081-281900-
  SOUTHWEST OHIO

CITY           SKY/WX    TMP DP  RH WIND       PRES   REMARKS
CINC-COVINGTON CLOUDY    77  55  46 SW13      30.14F
CINC-LUNKEN    MOSUNNY   78  56  46 S9        30.14F
HAMILTON       CLOUDY    80  57  45 VRB7      30.15F
DAYTON         PTSUNNY   75  51  43 S12       30.15F
WRIGHT-PAT AFB PTSUNNY   76  51  40 S15       30.14F
DAYTON GENERAL CLOUDY    75  51  43 SW9       30.14F
WILMINGTON     MOSUNNY   75  55  49 SW10      30.16F
$$

OHZ036-037-039>041-045>050-054>059-063>069-073>076-082>088-281900-
  CENTRAL AND SOUTHEAST OHIO

CITY           SKY/WX    TMP DP  RH WIND       PRES   REMARKS
COLUMBUS       PTSUNNY   75  52  44 SW9G18    30.15F
OSU AIRPORT    CLOUDY    75  52  44 SW12      30.15S
BOLTON FIELD   SUNNY     75  54  46 SW13      30.16F
RICKENBACK AFB PTSUNNY   75  52  44 S13       30.15F
NEWARK         MOSUNNY   77  47  34 S6        30.15F
MARION         MOSUNNY   75  50  41 SW15G21   30.15S
LANCASTER      CLOUDY    74  53  48 S8G16     30.16F
ZANESVILLE     MOSUNNY   74  51  44 SW9       30.17F
NEW PHILLY     NOT AVBL
$$



USA.gov is the U.S. government's official web portal to all federal, state and local government web resources and services.